Location: Newark
(11.4947°N, 0.1467°E)
Time: 08:13:00
(UTC+00:00)

Envisat - Pass Details

Date: 21 November 2019
Orbit: 764 x 766 km, 98.1° (Epoch: 08 December)

Event Time Altitude Azimuth Distance (km) Brightness Sun altitude
Rises 19:11:46 0° 197° (SSW) 3,222 6.7 -24.0°
Reaches altitude 10° 19:14:36 10° 213° (SSW) 2,297 6.1 -24.7°
Maximum altitude 19:18:18 21° 260° (W) 1,686 5.5 -25.6°
Drops below altitude 10° 19:22:01 10° 308° (NW) 2,296 5.9 -26.4°
Sets 19:24:52 0° 324° (NW) 3,221 6.5 -27.1°
